CARTOSAT-3

Last updated on Thu Jul 03 2025 00:02:30 GMT+0000 (Coordinated Universal Time)

1 44804U 19081A 25183.61562527 .00003102 00000+0 15016-3 0 9993 2 44804 97.4797 245.0073 0012100 293.4085 66.5877 15.19271732310394
UTC large
Height (km)
Speed (km/s)
/
Latitude / Longitude
Inclination (degrees)
Orbital Period (minutes)
Azimuth
Elevation
Range (km)
Doppler Factor

Next 0 passes for location: London (51.5072 / 0.1276)

Sorry there are no passes over London.